Find SONATE-2

NORAD ID: 59112 Int'l Des: 2024-043 Owner: WURZ Country: D operational
LEOCIRCULARRETROGRADE

当前视图

正在加载3D地球...

关于 SONATE-2

正在加载描述...

即将过境

Passes for default location (London). Set your location on the main map for personalized predictions.

高度历史

Loading altitude history...

两行轨道根数

1 59112U 24043Q 26149.38395000 .00045786 00000-0 62823-3 0 9995
2 59112 97.5509 298.6503 0006031 263.0916 96.9652 15.57197917124966
Epoch: May 29, 2026 • Age: 28 hours

当前状态

高度 399.6 km
速度 7.67 km/s
星下点 -2.50°S, 142.3°W
发射日期 Mar 4, 2024
运行时间 2.2 years
类型 other

技术详情

分类 Payload
质量 12.00 kg
干质量 12.00 kg
总质量 12.00 kg
长度 0.30 m
直径 0.10 m
跨度 0.60 m
形状 Box + 2 pan
制造商 WURZ
平台类型 Cubesat 6U
阶段状态 In Orbit
所有者/国家 WURZ/D

Most Searched